PAM4707 KATL-KEWR

Flight info

Callsign PAM4707
Flight time 1h 41m
Altitude 43000
Route PLMMR3 BURGG Q22 UMBRE QUART PHLBO4
Aircraft A388/J-SADE2E3FGHIJ3J4J5M1RWXY/LB1D1

Departure

Time 2026-05-04 17:26
Airport Hartsfield Jackson Atlanta International Airport (KATL)

Arrival

Time 2026-05-04 19:08
Airport Newark Liberty International Airport (KEWR)
Time Latitude Longitude Altitude Speed Heading
2026-05-04 16:37 33.63807 -84.41916 1011 ft 0 kts 269°
2026-05-04 17:15 33.63808 -84.41887 1011 ft 4 kts 269°
2026-05-04 17:16 33.63810 -84.41827 1012 ft 4 kts 232°
2026-05-04 17:16 33.63853 -84.41826 1012 ft 5 kts 180°
2026-05-04 17:23 33.63846 -84.41826 1012 ft 6 kts 180°
2026-05-04 17:23 33.63659 -84.41706 1011 ft 18 kts 100°
2026-05-04 17:24 33.63653 -84.41539 1011 ft 22 kts 90°
2026-05-04 17:24 33.63658 -84.40931 1011 ft 8 kts 89°
2026-05-04 17:25 33.63659 -84.40846 1011 ft 13 kts 89°
2026-05-04 17:25 33.63509 -84.40766 1012 ft 16 kts 225°
2026-05-04 17:26 33.63472 -84.41286 1011 ft 93 kts 270°
2026-05-04 17:26 33.63457 -84.45023 2392 ft 153 kts 270°
2026-05-04 17:27 33.63138 -84.47763 3386 ft 182 kts 252°
2026-05-04 17:27 33.62002 -84.50822 3879 ft 219 kts 243°
2026-05-04 17:28 33.60479 -84.54399 4873 ft 260 kts 244°
2026-05-04 17:29 33.56809 -84.59016 7707 ft 276 kts 192°
2026-05-04 17:29 33.50921 -84.58639 10458 ft 290 kts 177°
2026-05-04 17:30 33.44868 -84.57392 12791 ft 311 kts 147°
2026-05-04 17:31 33.42470 -84.52976 13979 ft 335 kts 100°
2026-05-04 17:31 33.44399 -84.45042 15785 ft 344 kts 65°
2026-05-04 17:32 33.45510 -84.39380 16865 ft 358 kts 83°
2026-05-04 17:33 33.47008 -84.30163 17789 ft 395 kts 54°
2026-05-04 17:33 33.48809 -84.27702 18477 ft 393 kts 37°
2026-05-04 17:34 33.55323 -84.21547 20212 ft 405 kts 38°
2026-05-04 17:34 33.57390 -84.19221 20771 ft 410 kts 40°
2026-05-04 17:35 33.63536 -84.11769 22441 ft 423 kts 41°
2026-05-04 17:35 33.67688 -84.06673 23551 ft 431 kts 41°
2026-05-04 17:35 33.69795 -84.04089 24027 ft 435 kts 41°
2026-05-04 17:36 33.71920 -84.01483 24475 ft 439 kts 41°
2026-05-04 17:36 33.74069 -83.98846 24943 ft 443 kts 41°
2026-05-04 17:36 33.76227 -83.96197 25409 ft 447 kts 41°
2026-05-04 17:36 33.78416 -83.93509 25878 ft 451 kts 41°
2026-05-04 17:37 33.80622 -83.90797 26377 ft 455 kts 41°
2026-05-04 17:37 33.82846 -83.88061 26902 ft 460 kts 41°
2026-05-04 17:37 33.85091 -83.85298 27433 ft 465 kts 41°
2026-05-04 17:37 33.87360 -83.82502 27974 ft 469 kts 41°
2026-05-04 17:38 33.89653 -83.79674 28498 ft 474 kts 40°
2026-05-04 17:38 33.91965 -83.76820 29066 ft 478 kts 40°
2026-05-04 17:38 33.94293 -83.73941 29604 ft 483 kts 41°
2026-05-04 17:38 33.96412 -83.70731 30148 ft 494 kts 51°
2026-05-04 17:39 34.00501 -83.64019 31140 ft 500 kts 48°
2026-05-04 17:39 34.02615 -83.60682 31623 ft 504 kts 48°
2026-05-04 17:39 34.04739 -83.57289 32114 ft 508 kts 49°
2026-05-04 17:40 34.06862 -83.53858 32610 ft 512 kts 49°
2026-05-04 17:40 34.08993 -83.50389 33073 ft 517 kts 49°
2026-05-04 17:40 34.11132 -83.46894 33537 ft 521 kts 49°
2026-05-04 17:40 34.13291 -83.43360 34002 ft 525 kts 49°
2026-05-04 17:41 34.15467 -83.39794 34441 ft 529 kts 49°
2026-05-04 17:41 34.17655 -83.36206 34822 ft 533 kts 49°
2026-05-04 17:41 34.19857 -83.32590 35303 ft 535 kts 49°
2026-05-04 17:41 34.22055 -83.28976 35851 ft 535 kts 49°
2026-05-04 17:42 34.24266 -83.25337 36397 ft 536 kts 49°
2026-05-04 17:42 34.26447 -83.21746 36940 ft 536 kts 49°
2026-05-04 17:42 34.28648 -83.18118 37470 ft 536 kts 49°
2026-05-04 17:42 34.30888 -83.14424 38030 ft 537 kts 49°
2026-05-04 17:43 34.33102 -83.10786 38566 ft 537 kts 49°
2026-05-04 17:43 34.35321 -83.07164 39043 ft 537 kts 49°
2026-05-04 17:43 34.37515 -83.03586 39481 ft 536 kts 49°
2026-05-04 17:43 34.39769 -82.99904 39912 ft 536 kts 49°
2026-05-04 17:44 34.41987 -82.96272 40342 ft 536 kts 49°
2026-05-04 17:44 34.44200 -82.92644 40794 ft 536 kts 49°
2026-05-04 17:44 34.46413 -82.89011 41192 ft 536 kts 49°
2026-05-04 17:44 34.48622 -82.85382 41601 ft 536 kts 49°
2026-05-04 17:45 34.50836 -82.81738 42024 ft 536 kts 49°
2026-05-04 17:45 34.53040 -82.78110 42406 ft 536 kts 49°
2026-05-04 17:45 34.55261 -82.74450 42671 ft 540 kts 49°
2026-05-04 17:45 34.57490 -82.70774 42937 ft 543 kts 49°
2026-05-04 17:46 34.59732 -82.67072 43124 ft 547 kts 50°
2026-05-04 17:46 34.61989 -82.63339 43101 ft 545 kts 50°
2026-05-04 17:46 34.66446 -82.55949 43104 ft 542 kts 50°
2026-05-04 17:47 34.70854 -82.48504 43111 ft 543 kts 50°
2026-05-04 17:47 34.75234 -82.41005 43111 ft 543 kts 50°
2026-05-04 17:48 34.79561 -82.33556 43129 ft 535 kts 51°
2026-05-04 17:48 34.83875 -82.26161 43095 ft 536 kts 50°
2026-05-04 17:49 34.88204 -82.18784 43100 ft 536 kts 51°
2026-05-04 17:49 34.92522 -82.11380 43100 ft 536 kts 51°
2026-05-04 17:50 34.96827 -82.03967 43086 ft 536 kts 51°
2026-05-04 17:50 35.01126 -81.96548 43082 ft 535 kts 51°
2026-05-04 17:51 35.05456 -81.89159 43080 ft 534 kts 49°
2026-05-04 17:51 35.09973 -81.81957 43076 ft 534 kts 49°
2026-05-04 17:52 35.14480 -81.74749 43080 ft 534 kts 49°
2026-05-04 17:52 35.18957 -81.67518 43083 ft 534 kts 49°
2026-05-04 17:53 35.23426 -81.60271 43085 ft 534 kts 49°
2026-05-04 17:53 35.27894 -81.53010 43086 ft 534 kts 49°
2026-05-04 17:54 35.32358 -81.45743 43082 ft 534 kts 49°
2026-05-04 17:54 35.36816 -81.38469 43068 ft 534 kts 49°
2026-05-04 17:55 35.41241 -81.31235 43073 ft 534 kts 49°
2026-05-04 17:55 35.45667 -81.23985 43075 ft 534 kts 49°
2026-05-04 17:56 35.50112 -81.16686 43079 ft 534 kts 49°
2026-05-04 17:56 35.54562 -81.09365 43075 ft 535 kts 49°
2026-05-04 17:57 35.59003 -81.02045 43071 ft 535 kts 50°
2026-05-04 17:57 35.63440 -80.94712 43066 ft 535 kts 50°
2026-05-04 17:58 35.67883 -80.87357 43071 ft 535 kts 50°
2026-05-04 17:58 35.72315 -80.80003 43068 ft 535 kts 50°
2026-05-04 17:59 35.76739 -80.72646 43064 ft 535 kts 50°
2026-05-04 18:00 35.83375 -80.61584 43058 ft 535 kts 50°
2026-05-04 18:00 35.87795 -80.54196 43044 ft 535 kts 50°
2026-05-04 18:01 35.92204 -80.46809 43046 ft 536 kts 50°
2026-05-04 18:01 35.95913 -80.40584 43050 ft 536 kts 50°
2026-05-04 18:02 36.02505 -80.29517 43053 ft 536 kts 50°
2026-05-04 18:02 36.06949 -80.22046 43047 ft 536 kts 50°
2026-05-04 18:03 36.11362 -80.14610 43059 ft 536 kts 50°
2026-05-04 18:03 36.15734 -80.07227 43058 ft 535 kts 50°
2026-05-04 18:04 36.20126 -79.99791 43054 ft 535 kts 50°
2026-05-04 18:05 36.26701 -79.88637 43046 ft 534 kts 50°
2026-05-04 18:05 36.31076 -79.81194 43044 ft 534 kts 50°
2026-05-04 18:06 36.37616 -79.70037 43039 ft 533 kts 50°
2026-05-04 18:06 36.41976 -79.62580 43037 ft 533 kts 50°
2026-05-04 18:07 36.46317 -79.55137 43027 ft 533 kts 50°
2026-05-04 18:07 36.50665 -79.47666 43030 ft 533 kts 50°
2026-05-04 18:08 36.55010 -79.40186 43024 ft 534 kts 50°
2026-05-04 18:08 36.59351 -79.32695 43035 ft 534 kts 50°
2026-05-04 18:09 36.68031 -79.17665 43034 ft 535 kts 51°
2026-05-04 18:10 36.72375 -79.10119 43035 ft 535 kts 51°
2026-05-04 18:10 36.76700 -79.02588 43032 ft 535 kts 51°
2026-05-04 18:11 36.81041 -78.95014 43031 ft 535 kts 51°
2026-05-04 18:11 36.85357 -78.87447 43031 ft 535 kts 51°
2026-05-04 18:12 36.89653 -78.79852 43029 ft 535 kts 51°
2026-05-04 18:12 36.93941 -78.72258 43029 ft 535 kts 51°
2026-05-04 18:13 36.98225 -78.64661 43032 ft 534 kts 51°
2026-05-04 18:14 37.04634 -78.53263 43027 ft 534 kts 51°
2026-05-04 18:14 37.08903 -78.45650 43020 ft 533 kts 51°
2026-05-04 18:15 37.17406 -78.30434 43028 ft 533 kts 52°
2026-05-04 18:16 37.21263 -78.22492 43006 ft 536 kts 62°
2026-05-04 18:16 37.24890 -78.14346 43006 ft 534 kts 56°
2026-05-04 18:17 37.30467 -78.02215 43009 ft 535 kts 58°
2026-05-04 18:18 37.35896 -77.89938 43014 ft 536 kts 58°
2026-05-04 18:18 37.39636 -77.81853 43021 ft 532 kts 50°
2026-05-04 18:18 37.42060 -77.78371 43021 ft 526 kts 38°
2026-05-04 18:19 37.48059 -77.73406 43024 ft 512 kts 20°
2026-05-04 18:19 37.54460 -77.69448 43028 ft 515 kts 24°
2026-05-04 18:20 37.60644 -77.64815 43031 ft 518 kts 27°
2026-05-04 18:20 37.66723 -77.59917 43034 ft 519 kts 28°
2026-05-04 18:21 37.72797 -77.54979 43036 ft 519 kts 28°
2026-05-04 18:21 37.78866 -77.50047 43033 ft 518 kts 28°
2026-05-04 18:22 37.84930 -77.45114 43031 ft 518 kts 28°
2026-05-04 18:22 37.90989 -77.40175 43020 ft 518 kts 28°
2026-05-04 18:23 37.97046 -77.35229 43001 ft 517 kts 28°
2026-05-04 18:23 38.00049 -77.32770 42784 ft 512 kts 28°
2026-05-04 18:23 38.03031 -77.30330 42320 ft 508 kts 28°
2026-05-04 18:24 38.05998 -77.27902 41678 ft 507 kts 28°
2026-05-04 18:24 38.08961 -77.25477 41018 ft 507 kts 28°
2026-05-04 18:24 38.11927 -77.23047 40370 ft 506 kts 28°
2026-05-04 18:24 38.14882 -77.20623 39710 ft 506 kts 28°
2026-05-04 18:25 38.17837 -77.18196 39062 ft 505 kts 28°
2026-05-04 18:25 38.20780 -77.15776 38362 ft 504 kts 28°
2026-05-04 18:25 38.23672 -77.13394 37647 ft 501 kts 28°
2026-05-04 18:25 38.26599 -77.10981 36922 ft 498 kts 27°
2026-05-04 18:26 38.29486 -77.08557 36165 ft 497 kts 30°
2026-05-04 18:26 38.32237 -77.05903 35430 ft 495 kts 32°
2026-05-04 18:26 38.34975 -77.03260 34647 ft 491 kts 31°
2026-05-04 18:26 38.37685 -77.00643 33831 ft 487 kts 31°
2026-05-04 18:27 38.40379 -76.98047 32757 ft 486 kts 31°
2026-05-04 18:27 38.43089 -76.95453 31602 ft 488 kts 32°
2026-05-04 18:27 38.45796 -76.92856 30714 ft 484 kts 32°
2026-05-04 18:27 38.48466 -76.90283 29958 ft 478 kts 32°
2026-05-04 18:28 38.51102 -76.87735 29086 ft 472 kts 32°
2026-05-04 18:28 38.53699 -76.85220 28242 ft 466 kts 32°
2026-05-04 18:28 38.56269 -76.82731 27435 ft 461 kts 32°
2026-05-04 18:28 38.58966 -76.80116 27084 ft 455 kts 32°
2026-05-04 18:29 38.61329 -76.77827 26986 ft 458 kts 32°
2026-05-04 18:29 38.63873 -76.75361 26985 ft 459 kts 32°
2026-05-04 18:29 38.66413 -76.72894 26985 ft 459 kts 32°
2026-05-04 18:29 38.68956 -76.70421 26985 ft 458 kts 32°
2026-05-04 18:30 38.74016 -76.65491 26986 ft 458 kts 32°
2026-05-04 18:30 38.76552 -76.63018 26987 ft 458 kts 32°
2026-05-04 18:30 38.79087 -76.60544 26986 ft 458 kts 32°
2026-05-04 18:31 38.81619 -76.58069 26986 ft 458 kts 32°
2026-05-04 18:31 38.84156 -76.55588 26986 ft 458 kts 32°
2026-05-04 18:31 38.86688 -76.53109 26988 ft 458 kts 32°
2026-05-04 18:31 38.89211 -76.50638 26989 ft 458 kts 32°
2026-05-04 18:32 38.91749 -76.48148 26989 ft 458 kts 32°
2026-05-04 18:32 38.94277 -76.45666 26989 ft 458 kts 32°
2026-05-04 18:32 38.96806 -76.43182 26981 ft 457 kts 32°
2026-05-04 18:32 38.99329 -76.40700 26980 ft 457 kts 32°
2026-05-04 18:33 39.01856 -76.38213 26981 ft 457 kts 32°
2026-05-04 18:33 39.04296 -76.35562 26986 ft 461 kts 38°
2026-05-04 18:33 39.06661 -76.32782 26991 ft 461 kts 37°
2026-05-04 18:33 39.09037 -76.30013 26999 ft 460 kts 37°
2026-05-04 18:34 39.11405 -76.27257 26994 ft 460 kts 37°
2026-05-04 18:34 39.13785 -76.24485 26996 ft 460 kts 37°
2026-05-04 18:34 39.16154 -76.21722 26998 ft 460 kts 37°
2026-05-04 18:34 39.18528 -76.18948 26999 ft 460 kts 37°
2026-05-04 18:35 39.20899 -76.16175 26995 ft 460 kts 37°
2026-05-04 18:35 39.23264 -76.13405 27001 ft 460 kts 37°
2026-05-04 18:35 39.25629 -76.10632 26978 ft 460 kts 37°
2026-05-04 18:35 39.27998 -76.07852 26977 ft 459 kts 37°
2026-05-04 18:36 39.30313 -76.05126 26776 ft 443 kts 37°
2026-05-04 18:36 39.32550 -76.02486 26523 ft 429 kts 37°
2026-05-04 18:36 39.34711 -75.99941 26272 ft 425 kts 37°
2026-05-04 18:36 39.36927 -75.97337 26021 ft 425 kts 37°
2026-05-04 18:37 39.39083 -75.94801 25772 ft 424 kts 37°
2026-05-04 18:37 39.41287 -75.92203 25529 ft 423 kts 37°
2026-05-04 18:37 39.43435 -75.89668 25284 ft 422 kts 37°
2026-05-04 18:37 39.45631 -75.87075 25047 ft 421 kts 37°
2026-05-04 18:38 39.47797 -75.84547 24801 ft 420 kts 37°
2026-05-04 18:38 39.49961 -75.82016 24559 ft 418 kts 37°
2026-05-04 18:38 39.52079 -75.79519 24329 ft 417 kts 37°
2026-05-04 18:38 39.54217 -75.76980 24088 ft 416 kts 37°
2026-05-04 18:39 39.56375 -75.74405 23852 ft 415 kts 38°
2026-05-04 18:39 39.58458 -75.71918 23617 ft 414 kts 37°
2026-05-04 18:39 39.60565 -75.69277 23131 ft 414 kts 40°
2026-05-04 18:39 39.62572 -75.66688 22623 ft 409 kts 39°
2026-05-04 18:40 39.64596 -75.64140 22105 ft 401 kts 38°
2026-05-04 18:40 39.66607 -75.61681 21597 ft 394 kts 38°
2026-05-04 18:40 39.68598 -75.59292 21098 ft 387 kts 37°
2026-05-04 18:40 39.70570 -75.56948 20605 ft 382 kts 37°
2026-05-04 18:41 39.72520 -75.54636 20127 ft 377 kts 37°
2026-05-04 18:41 39.74466 -75.52329 19643 ft 372 kts 37°
2026-05-04 18:41 39.76340 -75.50105 19167 ft 368 kts 38°
2026-05-04 18:41 39.78232 -75.47856 18718 ft 365 kts 38°
2026-05-04 18:42 39.80116 -75.45616 18216 ft 362 kts 38°
2026-05-04 18:42 39.81969 -75.43410 17707 ft 361 kts 38°
2026-05-04 18:42 39.83809 -75.41217 17287 ft 360 kts 38°
2026-05-04 18:42 39.85683 -75.38986 17012 ft 369 kts 38°
2026-05-04 18:43 39.87575 -75.36729 16855 ft 368 kts 38°
2026-05-04 18:43 39.88829 -75.35232 16473 ft 370 kts 38°
2026-05-04 18:43 39.90735 -75.32954 15592 ft 376 kts 38°
2026-05-04 18:43 39.92691 -75.30618 14413 ft 388 kts 39°
2026-05-04 18:44 39.94686 -75.28225 13626 ft 387 kts 39°
2026-05-04 18:44 39.95979 -75.26668 13341 ft 379 kts 39°
2026-05-04 18:44 39.98518 -75.23600 12844 ft 366 kts 39°
2026-05-04 18:44 40.00359 -75.21357 12572 ft 363 kts 39°
2026-05-04 18:45 40.02200 -75.19111 12316 ft 361 kts 39°
2026-05-04 18:45 40.04031 -75.16876 12048 ft 360 kts 40°
2026-05-04 18:45 40.05861 -75.14640 11801 ft 359 kts 39°
2026-05-04 18:45 40.07678 -75.12421 11551 ft 357 kts 40°
2026-05-04 18:46 40.09487 -75.10212 11212 ft 355 kts 40°
2026-05-04 18:46 40.11283 -75.08016 11057 ft 354 kts 40°
2026-05-04 18:46 40.13077 -75.05821 11034 ft 353 kts 39°
2026-05-04 18:46 40.14875 -75.03619 10697 ft 354 kts 40°
2026-05-04 18:47 40.16675 -75.01413 10161 ft 353 kts 40°
2026-05-04 18:47 40.18437 -74.99249 9958 ft 344 kts 40°
2026-05-04 18:47 40.20151 -74.97141 9843 ft 332 kts 40°
2026-05-04 18:47 40.21788 -74.95123 9685 ft 316 kts 40°
2026-05-04 18:48 40.23353 -74.93193 9523 ft 304 kts 40°
2026-05-04 18:48 40.24899 -74.91291 8971 ft 305 kts 40°
2026-05-04 18:48 40.26381 -74.89313 8529 ft 303 kts 44°
2026-05-04 18:48 40.27813 -74.87299 8145 ft 301 kts 44°
2026-05-04 18:49 40.29214 -74.85323 8006 ft 296 kts 44°
2026-05-04 18:49 40.30611 -74.83365 7722 ft 297 kts 44°
2026-05-04 18:49 40.32011 -74.81385 7652 ft 296 kts 44°
2026-05-04 18:49 40.33416 -74.79414 7604 ft 298 kts 44°
2026-05-04 18:50 40.34824 -74.77432 7490 ft 296 kts 44°
2026-05-04 18:50 40.36233 -74.75445 7374 ft 296 kts 44°
2026-05-04 18:50 40.37626 -74.73470 7251 ft 295 kts 44°
2026-05-04 18:50 40.39023 -74.71512 7181 ft 294 kts 43°
2026-05-04 18:51 40.40425 -74.69556 7079 ft 294 kts 43°
2026-05-04 18:51 40.41872 -74.67684 7012 ft 291 kts 33°
2026-05-04 18:51 40.43656 -74.66545 6868 ft 282 kts 10°
2026-05-04 18:51 40.45572 -74.66069 6775 ft 280 kts
2026-05-04 18:52 40.47482 -74.65579 6670 ft 280 kts
2026-05-04 18:52 40.49394 -74.65068 6567 ft 279 kts
2026-05-04 18:52 40.51300 -74.64555 6477 ft 280 kts
2026-05-04 18:52 40.53206 -74.64041 6374 ft 280 kts
2026-05-04 18:53 40.55114 -74.63524 6257 ft 280 kts
2026-05-04 18:53 40.57021 -74.63015 6160 ft 279 kts
2026-05-04 18:53 40.58931 -74.62506 6064 ft 281 kts
2026-05-04 18:53 40.60838 -74.61996 5956 ft 279 kts
2026-05-04 18:54 40.62751 -74.61481 5852 ft 279 kts
2026-05-04 18:54 40.64656 -74.60967 5760 ft 280 kts
2026-05-04 18:54 40.66563 -74.60449 5664 ft 281 kts
2026-05-04 18:54 40.68481 -74.59939 5547 ft 282 kts
2026-05-04 18:55 40.70406 -74.59418 5449 ft 282 kts
2026-05-04 18:55 40.74255 -74.58392 5245 ft 283 kts
2026-05-04 18:55 40.76176 -74.57869 5134 ft 281 kts
2026-05-04 18:56 40.78091 -74.57357 5035 ft 281 kts
2026-05-04 18:56 40.80009 -74.56842 4919 ft 282 kts
2026-05-04 18:56 40.81905 -74.56173 4825 ft 286 kts 21°
2026-05-04 18:56 40.83491 -74.54611 4723 ft 288 kts 49°
2026-05-04 18:57 40.84476 -74.52326 4631 ft 289 kts 69°
2026-05-04 18:57 40.85076 -74.49794 4515 ft 290 kts 75°
2026-05-04 18:57 40.85611 -74.47207 4388 ft 292 kts 74°
2026-05-04 18:57 40.86201 -74.44652 4318 ft 289 kts 73°
2026-05-04 18:58 40.86832 -74.42138 4199 ft 292 kts 71°
2026-05-04 18:58 40.87508 -74.39605 4116 ft 287 kts 71°
2026-05-04 18:58 40.88169 -74.37197 4017 ft 276 kts 70°
2026-05-04 18:58 40.88814 -74.34840 3929 ft 265 kts 71°
2026-05-04 18:59 40.89415 -74.32583 3828 ft 256 kts 71°
2026-05-04 18:59 40.89993 -74.30406 3758 ft 247 kts 71°
2026-05-04 18:59 40.90561 -74.28306 3643 ft 238 kts 71°
2026-05-04 18:59 40.91111 -74.26276 3590 ft 230 kts 71°
2026-05-04 19:00 40.91629 -74.24343 3503 ft 211 kts 71°
2026-05-04 19:00 40.92121 -74.22565 3133 ft 202 kts 71°
2026-05-04 19:00 40.92594 -74.20859 2947 ft 193 kts 71°
2026-05-04 19:00 40.93013 -74.19258 2988 ft 181 kts 72°
2026-05-04 19:01 40.93428 -74.17644 2957 ft 188 kts 72°
2026-05-04 19:01 40.93713 -74.15932 2955 ft 191 kts 94°
2026-05-04 19:01 40.93311 -74.14339 2956 ft 181 kts 135°
2026-05-04 19:01 40.92344 -74.13389 2975 ft 172 kts 159°
2026-05-04 19:02 40.91267 -74.12711 2965 ft 171 kts 163°
2026-05-04 19:02 40.90189 -74.12057 2962 ft 170 kts 161°
2026-05-04 19:02 40.89138 -74.11349 2978 ft 170 kts 159°
2026-05-04 19:02 40.88101 -74.10595 2966 ft 170 kts 157°
2026-05-04 19:03 40.87073 -74.09823 2961 ft 172 kts 158°
2026-05-04 19:03 40.86036 -74.09052 2981 ft 171 kts 158°
2026-05-04 19:03 40.84993 -74.08281 2984 ft 173 kts 158°
2026-05-04 19:03 40.83884 -74.07812 2963 ft 163 kts 181°
2026-05-04 19:04 40.82788 -74.07986 2803 ft 157 kts 201°
2026-05-04 19:04 40.81768 -74.08492 2595 ft 156 kts 208°
2026-05-04 19:04 40.80810 -74.09123 2395 ft 153 kts 209°
2026-05-04 19:04 40.79860 -74.09710 2192 ft 149 kts 208°
2026-05-04 19:05 40.78919 -74.10305 1992 ft 149 kts 209°
2026-05-04 19:05 40.77993 -74.10900 1791 ft 149 kts 208°
2026-05-04 19:05 40.77047 -74.11518 1603 ft 153 kts 208°
2026-05-04 19:05 40.76116 -74.12092 1399 ft 138 kts 209°
2026-05-04 19:06 40.75309 -74.12625 1223 ft 125 kts 210°
2026-05-04 19:06 40.74537 -74.13109 1050 ft 121 kts 207°
2026-05-04 19:06 40.73788 -74.13601 903 ft 124 kts 211°
2026-05-04 19:06 40.73110 -74.14019 741 ft 127 kts 208°
2026-05-04 19:07 40.72337 -74.14519 588 ft 120 kts 212°
2026-05-04 19:07 40.71590 -74.15005 369 ft 120 kts 210°
2026-05-04 19:07 40.70813 -74.15496 189 ft 126 kts 209°
2026-05-04 19:07 40.70017 -74.16003 46 ft 125 kts 208°
2026-05-04 19:08 40.69277 -74.16469 29 ft 98 kts 206°
2026-05-04 19:08 40.68823 -74.16770 27 ft 52 kts 216°
2026-05-04 19:08 40.68696 -74.16953 27 ft 10 kts 234°
2026-05-04 19:08 40.68665 -74.17010 27 ft 0 kts 234°
2026-05-04 19:09 40.68664 -74.17011 27 ft 1 kts 234°
2026-05-04 19:09 40.68635 -74.17077 27 ft 9 kts 254°
2026-05-04 19:10 40.68632 -74.17144 28 ft 6 kts 278°
2026-05-04 19:10 40.68648 -74.17215 28 ft 10 kts 292°
2026-05-04 19:10 40.68690 -74.17338 29 ft 20 kts 295°
2026-05-04 19:10 40.68739 -74.17456 27 ft 15 kts 300°
2026-05-04 19:11 40.68787 -74.17485 27 ft 7 kts 36°
2026-05-04 19:11 40.68855 -74.17397 27 ft 19 kts 36°
2026-05-04 19:11 40.68973 -74.17316 27 ft 19 kts 26°
2026-05-04 19:11 40.69081 -74.17246 27 ft 16 kts 26°
2026-05-04 19:12 40.69180 -74.17182 27 ft 16 kts 26°
2026-05-04 19:12 40.69383 -74.17069 27 ft 15 kts
2026-05-04 19:12 40.69447 -74.17066 27 ft 0 kts 357°
2026-05-04 19:13 40.69453 -74.17066 27 ft 1 kts 357°
2026-05-04 19:13 40.69473 -74.17069 27 ft 6 kts 352°
2026-05-04 19:13 40.69524 -74.17081 27 ft 7 kts 347°
2026-05-04 19:13 40.69573 -74.17098 27 ft 7 kts 343°
2026-05-04 19:14 40.69616 -74.17117 27 ft 7 kts 339°
2026-05-04 19:14 40.69668 -74.17146 27 ft 8 kts 335°
2026-05-04 19:14 40.69705 -74.17179 27 ft 5 kts 302°
2026-05-04 19:14 40.69716 -74.17216 27 ft 4 kts 280°
2026-05-04 19:15 40.69716 -74.17272 27 ft 7 kts 262°
2026-05-04 19:15 40.69704 -74.17333 27 ft 7 kts 246°
2026-05-04 19:15 40.69679 -74.17385 27 ft 7 kts 229°
2026-05-04 19:15 40.69648 -74.17428 27 ft 7 kts 218°
2026-05-04 19:16 40.69623 -74.17442 27 ft 1 kts 164°
2026-05-04 19:16 40.69608 -74.17429 27 ft 6 kts 140°
2026-05-04 19:16 40.69592 -74.17411 27 ft 0 kts 137°
2026-05-04 19:17 40.69573 -74.17388 27 ft 0 kts 132°
2026-05-04 19:21 40.69404 -74.17360 27 ft 0 kts 13°